sat.trackr.live / text

‹ back to catalog

BANDWAGON-2 OBJECT D

NORAD 62380 · 2024-247D

PAYLOAD ACTIVE UNKNOWN

§ Identity

Operator
Country
TBD
Launch date
2024-12-21
Launch site
AFWTR
Launch vehicle
Mass (kg)
RCS (m²)

External: N2YO · Heavens-Above · Gunter

§ Orbital elements

Epoch: 2026-09-21T00:38:11.295168Z

Period
93.97 min
Inclination
44.9933°
Eccentricity
0.0002312
Mean motion
15.32329672 rev/d
Perigee alt
467.3 km
Apogee alt
470.4 km
Semi-major
6,847.0 km
B*
1.9291e-4
RAAN
123.0097°
Arg perigee
139.7902°
Mean anomaly
220.3154°
Rev number
9,769

§ Raw data

BANDWAGON-2 OBJECT D1 62380U 24247D   26264.02651962  .00005833  00000+0  19291-3 0  99922 62380  44.9933 123.0097 0002312 139.7902 220.3154 15.32329672 97692

JSON: /api/v1/satellites/62380 · /tle

For live sub-satellite position, see the globe view (requires WebGL).

§ Visibility from observer

Set your observer location to see the next 7 days of passes ≥ 10°. The values pass through the URL so the page stays shareable.

No JS? Fill the form by hand. The geolocation button needs JavaScript.